| time (UTC) | temp F | wind direction | speed MPH | gust MPH | rain 1hr in | rain 24hr in | rain mn in | humidity % | barometer mb |
| 20260509044901 | 59 | 150 | 0.0 | 0.0 | 0.00 | 0.00 | 0.00 | 73 | 1013.6 |
| 20260509044358 | 59 | 150 | 0.0 | 0.0 | 0.00 | 0.00 | 0.00 | 72 | 1013.5 |
| 20260509043855 | 59 | 150 | 0.0 | 0.0 | 0.00 | 0.00 | 0.00 | 72 | 1013.8 |
| 20260509043350 | 59 | 150 | 0.0 | 0.0 | 0.00 | 0.00 | 0.00 | 71 | 1013.7 |
| 20260509042847 | 59 | 150 | 0.0 | 0.0 | 0.00 | 0.00 | 0.00 | 70 | 1013.6 |
| 20260509042343 | 59 | 150 | 0.0 | 0.0 | 0.00 | 0.00 | 0.00 | 70 | 1013.4 |
| 20260509041840 | 59 | 148 | 0.0 | 0.0 | 0.00 | 0.00 | 0.00 | 69 | 1013.6 |
| 20260509041337 | 60 | 148 | 0.0 | 0.0 | 0.00 | 0.00 | 0.00 | 68 | 1013.7 |
| 20260509040835 | 60 | 148 | 0.0 | 0.0 | 0.00 | 0.00 | 0.00 | 67 | 1013.4 |
| 20260509040332 | 60 | 148 | 0.0 | 0.0 | 0.00 | 0.00 | 0.00 | 66 | 1013.4 |
| 20260509035829 | 60 | 148 | 0.0 | 0.0 | 0.00 | 0.00 | 0.00 | 66 | 1013.3 |
| 20260509035327 | 60 | 148 | 0.0 | 0.0 | 0.00 | 0.00 | 0.00 | 65 | 1013.6 |
| 20260509034822 | 60 | 148 | 0.0 | 0.0 | 0.00 | 0.00 | 0.00 | 64 | 1013.6 |
| 20260509034321 | 60 | 148 | 0.0 | 0.0 | 0.00 | 0.00 | 0.00 | 64 | 1013.5 |
| 20260509033817 | 61 | 148 | 0.0 | 0.0 | 0.00 | 0.00 | 0.00 | 63 | 1013.6 |
| 20260509033314 | 61 | 148 | 0.0 | 0.0 | 0.00 | 0.00 | 0.00 | 62 | 1013.6 |
| 20260509032811 | 61 | 148 | 0.0 | 0.0 | 0.00 | 0.00 | 0.00 | 61 | 1013.7 |
| 20260509032308 | 61 | 148 | 0.0 | 0.0 | 0.00 | 0.00 | 0.00 | 60 | 1013.7 |
| 20260509031806 | 61 | 148 | 0.0 | 0.0 | 0.00 | 0.00 | 0.00 | 59 | 1013.7 |
| 20260509031303 | 62 | 148 | 0.0 | 0.0 | 0.00 | 0.00 | 0.00 | 58 | 1013.8 |
| 20260509030801 | 62 | 148 | 0.0 | 0.0 | 0.00 | 0.00 | 0.00 | 58 | 1013.8 |
| 20260509030259 | 62 | 148 | 0.0 | 0.0 | 0.00 | 0.00 | 0.00 | 57 | 1013.8 |
| 20260509025755 | 62 | 148 | 0.0 | 0.0 | 0.00 | 0.00 | 0.00 | 57 | 1013.8 |
| 20260509025250 | 62 | 148 | 0.0 | 0.0 | 0.00 | 0.00 | 0.00 | 57 | 1013.9 |
| 20260509024746 | 62 | 148 | 0.0 | 0.0 | 0.00 | 0.00 | 0.00 | 57 | 1013.8 |
| 20260509024243 | 63 | 148 | 0.0 | 0.0 | 0.00 | 0.00 | 0.00 | 57 | 1014.0 |
| 20260509023740 | 63 | 148 | 0.0 | 0.0 | 0.00 | 0.00 | 0.00 | 56 | 1014.1 |
| 20260509023237 | 63 | 148 | 0.0 | 0.0 | 0.00 | 0.00 | 0.00 | 56 | 1013.9 |
| 20260509022733 | 64 | 148 | 0.0 | 0.0 | 0.00 | 0.00 | 0.00 | 56 | 1013.7 |
| 20260509022231 | 64 | 148 | 0.0 | 0.0 | 0.00 | 0.00 | 0.00 | 55 | 1014.0 |
| 20260509021727 | 64 | 148 | 0.0 | 0.0 | 0.00 | 0.00 | 0.00 | 54 | 1013.7 |
| 20260509021225 | 64 | 147 | 0.0 | 0.0 | 0.00 | 0.00 | 0.00 | 54 | 1013.8 |
| 20260509020723 | 64 | 147 | 0.0 | 0.0 | 0.00 | 0.00 | 0.00 | 53 | 1014.1 |
| 20260509020219 | 64 | 147 | 0.0 | 0.0 | 0.00 | 0.00 | 0.00 | 53 | 1013.9 |
| 20260509015718 | 64 | 147 | 0.0 | 0.0 | 0.00 | 0.00 | 0.00 | 53 | 1014.2 |
| 20260509015216 | 64 | 147 | 0.0 | 0.0 | 0.00 | 0.00 | 0.00 | 53 | 1013.9 |
| 20260509014712 | 64 | 147 | 0.0 | 0.0 | 0.00 | 0.00 | 0.00 | 52 | 1014.0 |
| 20260509014209 | 65 | 147 | 0.0 | 0.0 | 0.00 | 0.00 | 0.00 | 52 | 1014.0 |
| 20260509013706 | 65 | 148 | 0.0 | 1.0 | 0.00 | 0.00 | 0.00 | 51 | 1013.8 |
| 20260509013201 | 65 | 156 | 0.0 | 0.0 | 0.00 | 0.00 | 0.00 | 51 | 1013.7 |
| 20260509012658 | 65 | 156 | 0.0 | 1.0 | 0.00 | 0.00 | 0.00 | 50 | 1013.8 |
| 20260509012154 | 65 | 157 | 0.0 | 1.0 | 0.00 | 0.00 | 0.00 | 50 | 1013.7 |
| 20260509011652 | 65 | 152 | 0.0 | 0.0 | 0.00 | 0.00 | 0.00 | 50 | 1013.7 |
| 20260509011149 | 65 | 158 | 0.0 | 0.0 | 0.00 | 0.00 | 0.00 | 50 | 1013.6 |
| 20260509010647 | 66 | 147 | 0.0 | 0.0 | 0.00 | 0.00 | 0.00 | 50 | 1013.7 |
| 20260509010143 | 66 | 153 | 0.0 | 0.0 | 0.00 | 0.00 | 0.00 | 49 | 1013.7 |
| 20260509005641 | 66 | 152 | 0.0 | 0.0 | 0.00 | 0.00 | 0.00 | 49 | 1013.7 |
| 20260509005137 | 66 | 154 | 0.0 | 1.0 | 0.00 | 0.00 | 0.00 | 49 | 1013.9 |
| 20260509004633 | 66 | 148 | 0.0 | 2.0 | 0.00 | 0.00 | 0.00 | 48 | 1013.8 |
| 20260509004130 | 66 | 147 | 0.0 | 1.0 | 0.00 | 0.00 | 0.00 | 48 | 1014.0 |
| 20260509003629 | 66 | 148 | 0.0 | 1.0 | 0.00 | 0.00 | 0.00 | 48 | 1013.8 |
| 20260509003126 | 67 | 154 | 0.0 | 0.0 | 0.00 | 0.00 | 0.00 | 47 | 1014.0 |
| 20260509002623 | 67 | 144 | 0.0 | 1.0 | 0.00 | 0.00 | 0.00 | 47 | 1013.8 |
| 20260509002120 | 68 | 156 | 1.0 | 1.0 | 0.00 | 0.00 | 0.00 | 47 | 1013.7 |
| 20260509001618 | 68 | 143 | 2.0 | 3.0 | 0.00 | 0.00 | 0.00 | 46 | 1013.9 |
| 20260509001113 | 68 | 150 | 0.0 | 1.0 | 0.00 | 0.00 | 0.00 | 46 | 1014.0 |
| 20260509000612 | 68 | 153 | 0.0 | 1.0 | 0.00 | 0.00 | 0.00 | 46 | 1013.8 |
| 20260509000108 | 68 | 171 | 1.0 | 2.0 | 0.00 | 0.00 | 0.00 | 45 | 1013.7 |
| 20260508235606 | 69 | 153 | 1.0 | 5.0 | 0.00 | 0.00 | 0.00 | 46 | 1013.7 |
| 20260508235102 | 69 | 178 | 1.0 | 2.0 | 0.00 | 0.00 | 0.00 | 46 | 1013.6 |
| 20260508234559 | 69 | 139 | 0.0 | 0.0 | 0.00 | 0.00 | 0.00 | 45 | 1013.9 |
| 20260508234055 | 69 | 139 | 0.0 | 2.0 | 0.00 | 0.00 | 0.00 | 45 | 1013.7 |
| 20260508233555 | 69 | 141 | 0.0 | 1.0 | 0.00 | 0.00 | 0.00 | 44 | 1014.0 |
| 20260508233052 | 70 | 150 | 0.0 | 1.0 | 0.00 | 0.00 | 0.00 | 44 | 1013.9 |
| 20260508232549 | 70 | 146 | 2.0 | 3.0 | 0.00 | 0.00 | 0.00 | 44 | 1013.9 |
| 20260508232046 | 70 | 185 | 1.0 | 2.0 | 0.00 | 0.00 | 0.00 | 43 | 1014.0 |
| 20260508231544 | 70 | 288 | 3.0 | 6.0 | 0.00 | 0.00 | 0.00 | 43 | 1014.0 |
| 20260508231041 | 70 | 179 | 2.0 | 3.0 | 0.00 | 0.00 | 0.00 | 43 | 1013.9 |
| 20260508230537 | 70 | 182 | 0.0 | 3.0 | 0.00 | 0.00 | 0.00 | 42 | 1013.9 |
| 20260508230034 | 70 | 166 | 2.0 | 6.0 | 0.00 | 0.00 | 0.00 | 42 | 1013.9 |
| 20260508225531 | 71 | 167 | 2.0 | 6.0 | 0.00 | 0.00 | 0.00 | 42 | 1014.0 |
| 20260508225028 | 71 | 170 | 0.0 | 6.0 | 0.00 | 0.00 | 0.00 | 43 | 1013.8 |
| 20260508224526 | 71 | 189 | 1.0 | 6.0 | 0.00 | 0.00 | 0.00 | 43 | 1014.0 |
| 20260508224023 | 71 | 146 | 0.0 | 2.0 | 0.00 | 0.00 | 0.00 | 42 | 1013.8 |
| 20260508223521 | 71 | 159 | 1.0 | 2.0 | 0.00 | 0.00 | 0.00 | 42 | 1013.8 |
| 20260508223018 | 71 | 171 | 2.0 | 3.0 | 0.00 | 0.00 | 0.00 | 41 | 1013.7 |
| 20260508222515 | 71 | 131 | 1.0 | 3.0 | 0.00 | 0.00 | 0.00 | 41 | 1013.9 |
| 20260508222012 | 72 | 141 | 0.0 | 2.0 | 0.00 | 0.00 | 0.00 | 40 | 1013.8 |
| 20260508221508 | 72 | 173 | 2.0 | 3.0 | 0.00 | 0.00 | 0.00 | 41 | 1013.8 |
| 20260508221004 | 72 | 184 | 1.0 | 6.0 | 0.00 | 0.00 | 0.00 | 40 | 1013.8 |
| 20260508220501 | 72 | 174 | 2.0 | 6.0 | 0.00 | 0.00 | 0.00 | 40 | 1013.5 |
| 20260508215956 | 72 | 165 | 1.0 | 3.0 | 0.00 | 0.00 | 0.00 | 40 | 1013.8 |
| 20260508215454 | 72 | 144 | 1.0 | 5.0 | 0.00 | 0.00 | 0.00 | 40 | 1013.7 |
| 20260508214950 | 73 | 135 | 4.0 | 5.0 | 0.00 | 0.00 | 0.00 | 39 | 1013.6 |
| 20260508214448 | 73 | 205 | 3.0 | 3.0 | 0.00 | 0.00 | 0.00 | 39 | 1013.8 |
| 20260508213944 | 73 | 190 | 2.0 | 5.0 | 0.00 | 0.00 | 0.00 | 39 | 1013.5 |
| 20260508213442 | 73 | 169 | 1.0 | 3.0 | 0.00 | 0.00 | 0.00 | 39 | 1013.7 |
| 20260508212937 | 74 | 177 | 0.0 | 3.0 | 0.00 | 0.00 | 0.00 | 40 | 1013.6 |
| 20260508212434 | 74 | 170 | 0.0 | 2.0 | 0.00 | 0.00 | 0.00 | 39 | 1013.8 |
| 20260508211930 | 74 | 242 | 2.0 | 3.0 | 0.00 | 0.00 | 0.00 | 40 | 1013.8 |
| 20260508211425 | 72 | 181 | 2.0 | 2.0 | 0.00 | 0.00 | 0.00 | 40 | 1014.0 |
| 20260508210923 | 72 | 168 | 1.0 | 3.0 | 0.00 | 0.00 | 0.00 | 39 | 1014.0 |
| 20260508210420 | 72 | 188 | 0.0 | 3.0 | 0.00 | 0.00 | 0.00 | 38 | 1014.2 |
| 20260508205916 | 72 | 171 | 3.0 | 5.0 | 0.00 | 0.00 | 0.00 | 37 | 1014.2 |
| 20260508205413 | 74 | 149 | 1.0 | 3.0 | 0.00 | 0.00 | 0.00 | 37 | 1014.1 |
| 20260508204909 | 75 | 114 | 1.0 | 5.0 | 0.00 | 0.00 | 0.00 | 36 | 1014.4 |
| 20260508204407 | 76 | 205 | 4.0 | 6.0 | 0.00 | 0.00 | 0.00 | 37 | 1014.4 |
| 20260508203902 | 76 | 258 | 3.0 | 3.0 | 0.00 | 0.00 | 0.00 | 37 | 1014.4 |
| 20260508203358 | 75 | 172 | 0.0 | 3.0 | 0.00 | 0.00 | 0.00 | 37 | 1014.4 |
| 20260508202854 | 75 | 128 | 2.0 | 2.0 | 0.00 | 0.00 | 0.00 | 37 | 1014.5 |
| 20260508202352 | 75 | 133 | 2.0 | 5.0 | 0.00 | 0.00 | 0.00 | 37 | 1014.8 |
| 20260508201849 | 74 | 150 | 1.0 | 5.0 | 0.00 | 0.00 | 0.00 | 38 | 1014.8 |
| 20260508201345 | 74 | 151 | 1.0 | 5.0 | 0.00 | 0.00 | 0.00 | 37 | 1014.9 |
| 20260508200842 | 74 | 175 | 1.0 | 7.0 | 0.00 | 0.00 | 0.00 | 36 | 1015.0 |
| 20260508200339 | 75 | 130 | 3.0 | 6.0 | 0.00 | 0.00 | 0.00 | 37 | 1015.0 |
| 20260508195834 | 75 | 120 | 1.0 | 6.0 | 0.00 | 0.00 | 0.00 | 37 | 1015.3 |
| 20260508195331 | 74 | 174 | 2.0 | 5.0 | 0.00 | 0.00 | 0.00 | 38 | 1015.4 |
| 20260508194827 | 74 | 139 | 1.0 | 7.0 | 0.00 | 0.00 | 0.00 | 37 | 1015.5 |
| 20260508194325 | 74 | 147 | 0.0 | 5.0 | 0.00 | 0.00 | 0.00 | 39 | 1015.6 |
| 20260508193821 | 74 | 147 | 3.0 | 9.0 | 0.00 | 0.00 | 0.00 | 37 | 1015.5 |
| 20260508193318 | 74 | 116 | 3.0 | 6.0 | 0.00 | 0.00 | 0.00 | 37 | 1015.5 |
| 20260508192809 | 75 | 77 | 3.0 | 3.0 | 0.00 | 0.00 | 0.00 | 38 | 1015.6 |
| 20260508192306 | 74 | 139 | 1.0 | 2.0 | 0.00 | 0.00 | 0.00 | 39 | 1015.7 |
| 20260508191803 | 72 | 139 | 3.0 | 5.0 | 0.00 | 0.00 | 0.00 | 38 | 1015.8 |
| 20260508191300 | 72 | 183 | 2.0 | 6.0 | 0.00 | 0.00 | 0.00 | 37 | 1016.2 |
| 20260508190758 | 73 | 153 | 4.0 | 7.0 | 0.00 | 0.00 | 0.00 | 38 | 1016.0 |
| 20260508190253 | 73 | 181 | 2.0 | 3.0 | 0.00 | 0.00 | 0.00 | 38 | 1016.2 |
| 20260508185750 | 72 | 145 | 1.0 | 3.0 | 0.00 | 0.00 | 0.00 | 37 | 1016.1 |
| 20260508185248 | 73 | 159 | 2.0 | 5.0 | 0.00 | 0.00 | 0.00 | 37 | 1016.2 |
| 20260508184744 | 74 | 163 | 7.0 | 10.0 | 0.00 | 0.00 | 0.00 | 37 | 1016.2 |
| 20260508184242 | 75 | 217 | 3.0 | 7.0 | 0.00 | 0.00 | 0.00 | 37 | 1016.3 |
| 20260508183739 | 76 | 175 | 0.0 | 5.0 | 0.00 | 0.00 | 0.00 | 38 | 1016.1 |
| 20260508183235 | 75 | 151 | 1.0 | 2.0 | 0.00 | 0.00 | 0.00 | 38 | 1016.2 |
| 20260508182731 | 75 | 282 | 2.0 | 2.0 | 0.00 | 0.00 | 0.00 | 38 | 1016.0 |
| 20260508182228 | 75 | 149 | 0.0 | 5.0 | 0.00 | 0.00 | 0.00 | 37 | 1015.8 |
| 20260508181724 | 74 | 176 | 1.0 | 6.0 | 0.00 | 0.00 | 0.00 | 37 | 1016.2 |
| 20260508181221 | 75 | 135 | 0.0 | 3.0 | 0.00 | 0.00 | 0.00 | 37 | 1016.1 |
| 20260508180717 | 74 | 150 | 1.0 | 2.0 | 0.00 | 0.00 | 0.00 | 37 | 1016.1 |
| 20260508180214 | 74 | 155 | 1.0 | 5.0 | 0.00 | 0.00 | 0.00 | 37 | 1016.1 |
| 20260508175711 | 75 | 268 | 2.0 | 5.0 | 0.00 | 0.00 | 0.00 | 38 | 1016.3 |
| 20260508175208 | 73 | 152 | 2.0 | 3.0 | 0.00 | 0.00 | 0.00 | 38 | 1016.7 |
| 20260508174706 | 72 | 198 | 3.0 | 6.0 | 0.00 | 0.00 | 0.00 | 37 | 1016.6 |
| 20260508174202 | 72 | 256 | 2.0 | 7.0 | 0.00 | 0.00 | 0.00 | 37 | 1016.9 |
| 20260508173659 | 72 | 184 | 5.0 | 7.0 | 0.00 | 0.00 | 0.00 | 37 | 1016.9 |
| 20260508173154 | 73 | 183 | 3.0 | 10.0 | 0.00 | 0.00 | 0.00 | 38 | 1017.4 |
| 20260508172652 | 72 | 156 | 1.0 | 6.0 | 0.00 | 0.00 | 0.00 | 39 | 1017.3 |
| 20260508172149 | 72 | 169 | 2.0 | 8.0 | 0.00 | 0.00 | 0.00 | 39 | 1017.4 |
| 20260508171645 | 72 | 229 | 3.0 | 7.0 | 0.00 | 0.00 | 0.00 | 40 | 1017.4 |
| 20260508171141 | 71 | 231 | 3.0 | 5.0 | 0.00 | 0.00 | 0.00 | 40 | 1017.6 |
| 20260508170639 | 72 | 166 | 1.0 | 6.0 | 0.00 | 0.00 | 0.00 | 40 | 1017.8 |
| 20260508170136 | 72 | 142 | 1.0 | 3.0 | 0.00 | 0.00 | 0.00 | 40 | 1018.0 |
| 20260508165633 | 72 | 94 | 1.0 | 2.0 | 0.00 | 0.00 | 0.00 | 40 | 1018.0 |
| 20260508165130 | 72 | 255 | 4.0 | 7.0 | 0.00 | 0.00 | 0.00 | 41 | 1018.3 |
| 20260508164627 | 72 | 257 | 4.0 | 6.0 | 0.00 | 0.00 | 0.00 | 41 | 1018.1 |
| 20260508164124 | 72 | 139 | 2.0 | 3.0 | 0.00 | 0.00 | 0.00 | 42 | 1018.2 |
| 20260508163621 | 71 | 149 | 2.0 | 3.0 | 0.00 | 0.00 | 0.00 | 41 | 1018.3 |
| 20260508163118 | 71 | 165 | 1.0 | 5.0 | 0.00 | 0.00 | 0.00 | 42 | 1018.5 |
| 20260508162614 | 70 | 263 | 1.0 | 6.0 | 0.00 | 0.00 | 0.00 | 42 | 1018.6 |
| 20260508162112 | 71 | 176 | 3.0 | 7.0 | 0.00 | 0.00 | 0.00 | 43 | 1018.6 |
| 20260508161608 | 71 | 146 | 1.0 | 2.0 | 0.00 | 0.00 | 0.00 | 44 | 1018.5 |
| 20260508161106 | 71 | 161 | 1.0 | 2.0 | 0.00 | 0.00 | 0.00 | 44 | 1018.7 |
| 20260508160604 | 71 | 149 | 2.0 | 8.0 | 0.00 | 0.00 | 0.00 | 45 | 1018.8 |
| 20260508160101 | 70 | 176 | 0.0 | 1.0 | 0.00 | 0.00 | 0.00 | 45 | 1018.6 |
| 20260508155558 | 70 | 145 | 2.0 | 5.0 | 0.00 | 0.00 | 0.00 | 45 | 1018.9 |
| 20260508155055 | 70 | 146 | 1.0 | 7.0 | 0.00 | 0.00 | 0.00 | 45 | 1018.9 |
| 20260508154552 | 70 | 233 | 1.0 | 2.0 | 0.00 | 0.00 | 0.00 | 46 | 1018.9 |
| 20260508154049 | 70 | 242 | 1.0 | 5.0 | 0.00 | 0.00 | 0.00 | 46 | 1019.1 |
| 20260508153545 | 70 | 145 | 2.0 | 2.0 | 0.00 | 0.00 | 0.00 | 48 | 1019.2 |
| 20260508153042 | 68 | 153 | 1.0 | 2.0 | 0.00 | 0.00 | 0.00 | 48 | 1019.2 |
| 20260508152540 | 68 | 143 | 3.0 | 7.0 | 0.00 | 0.00 | 0.00 | 48 | 1019.3 |
| 20260508152034 | 68 | 138 | 1.0 | 3.0 | 0.00 | 0.00 | 0.00 | 49 | 1019.2 |
| 20260508151531 | 67 | 147 | 2.0 | 3.0 | 0.00 | 0.00 | 0.00 | 51 | 1019.3 |
| 20260508151028 | 67 | 318 | 2.0 | 7.0 | 0.00 | 0.00 | 0.00 | 51 | 1019.6 |
| 20260508150526 | 66 | 213 | 2.0 | 7.0 | 0.00 | 0.00 | 0.00 | 53 | 1019.4 |
| 20260508150021 | 66 | 128 | 3.0 | 7.0 | 0.00 | 0.00 | 0.00 | 54 | 1019.9 |
| 20260508145518 | 66 | 186 | 2.0 | 5.0 | 0.00 | 0.00 | 0.00 | 57 | 1019.7 |
| 20260508145014 | 64 | 146 | 1.0 | 3.0 | 0.00 | 0.00 | 0.00 | 59 | 1019.8 |
| 20260508144512 | 64 | 213 | 2.0 | 2.0 | 0.00 | 0.00 | 0.00 | 61 | 1019.8 |
| 20260508144009 | 63 | 148 | 3.0 | 3.0 | 0.00 | 0.00 | 0.00 | 63 | 1020.0 |
| 20260508143507 | 62 | 122 | 0.0 | 5.0 | 0.00 | 0.00 | 0.00 | 66 | 1020.0 |
| 20260508143003 | 62 | 181 | 3.0 | 3.0 | 0.00 | 0.00 | 0.00 | 67 | 1020.1 |
| 20260508142500 | 61 | 143 | 1.0 | 2.0 | 0.00 | 0.00 | 0.00 | 70 | 1020.1 |
| 20260508141956 | 61 | 147 | 0.0 | 8.0 | 0.00 | 0.00 | 0.00 | 73 | 1020.0 |
| 20260508141453 | 60 | 150 | 0.0 | 7.0 | 0.00 | 0.00 | 0.00 | 75 | 1019.9 |
| 20260508140951 | 59 | 140 | 0.0 | 2.0 | 0.00 | 0.00 | 0.00 | 78 | 1020.4 |
| 20260508140448 | 59 | 134 | 1.0 | 1.0 | 0.00 | 0.00 | 0.00 | 80 | 1020.1 |
| 20260508135943 | 58 | 147 | 0.0 | 1.0 | 0.00 | 0.00 | 0.00 | 82 | 1020.1 |
| 20260508135440 | 57 | 152 | 0.0 | 1.0 | 0.00 | 0.00 | 0.00 | 83 | 1020.0 |
| 20260508134936 | 57 | 144 | 0.0 | 0.0 | 0.00 | 0.00 | 0.00 | 84 | 1020.1 |
| 20260508134433 | 56 | 142 | 1.0 | 1.0 | 0.00 | 0.00 | 0.00 | 85 | 1020.1 |
| 20260508133930 | 55 | 141 | 0.0 | 1.0 | 0.00 | 0.00 | 0.00 | 87 | 1020.3 |
| 20260508133428 | 55 | 168 | 0.0 | 1.0 | 0.00 | 0.00 | 0.00 | 88 | 1020.2 |
| 20260508132924 | 54 | 151 | 0.0 | 1.0 | 0.00 | 0.00 | 0.00 | 89 | 1020.3 |
| 20260508132422 | 53 | 163 | 1.0 | 2.0 | 0.00 | 0.00 | 0.00 | 91 | 1020.0 |
| 20260508131919 | 53 | 146 | 0.0 | 1.0 | 0.00 | 0.00 | 0.00 | 92 | 1020.4 |
| 20260508131414 | 52 | 151 | 1.0 | 1.0 | 0.00 | 0.00 | 0.00 | 93 | 1020.1 |
| 20260508130911 | 50 | 151 | 0.0 | 1.0 | 0.00 | 0.00 | 0.00 | 94 | 1020.3 |
| 20260508130408 | 50 | 162 | 0.0 | 1.0 | 0.00 | 0.00 | 0.00 | 94 | 1020.3 |
| 20260508125904 | 49 | 147 | 0.0 | 0.0 | 0.00 | 0.00 | 0.00 | 95 | 1020.1 |
| 20260508125400 | 48 | 151 | 0.0 | 0.0 | 0.00 | 0.00 | 0.00 | 95 | 1020.1 |
| 20260508124858 | 48 | 150 | 0.0 | 0.0 | 0.00 | 0.00 | 0.00 | 95 | 1020.1 |
| 20260508124355 | 47 | 145 | 0.0 | 0.0 | 0.00 | 0.00 | 0.00 | 95 | 1020.0 |
| 20260508123853 | 47 | 143 | 0.0 | 0.0 | 0.00 | 0.00 | 0.00 | 95 | 1020.0 |
| 20260508123352 | 46 | 148 | 0.0 | 0.0 | 0.00 | 0.00 | 0.00 | 95 | 1020.2 |
| 20260508122847 | 45 | 147 | 0.0 | 0.0 | 0.00 | 0.00 | 0.00 | 95 | 1020.2 |
| 20260508122344 | 45 | 147 | 0.0 | 0.0 | 0.00 | 0.00 | 0.00 | 95 | 1020.1 |
| 20260508121841 | 44 | 146 | 0.0 | 0.0 | 0.00 | 0.00 | 0.00 | 95 | 1020.2 |
| 20260508121340 | 44 | 146 | 0.0 | 0.0 | 0.00 | 0.00 | 0.00 | 95 | 1020.1 |
| 20260508120837 | 43 | 146 | 0.0 | 0.0 | 0.00 | 0.00 | 0.00 | 95 | 1020.2 |
| 20260508120335 | 43 | 146 | 0.0 | 0.0 | 0.00 | 0.00 | 0.00 | 95 | 1020.2 |
| 20260508115832 | 43 | 146 | 0.0 | 0.0 | 0.00 | 0.00 | 0.00 | 95 | 1020.0 |
| 20260508115330 | 42 | 147 | 0.0 | 0.0 | 0.00 | 0.00 | 0.00 | 95 | 1020.2 |
| 20260508114826 | 42 | 147 | 0.0 | 0.0 | 0.00 | 0.00 | 0.00 | 95 | 1020.0 |
| 20260508114323 | 42 | 147 | 0.0 | 0.0 | 0.00 | 0.00 | 0.00 | 94 | 1019.9 |
| 20260508113820 | 41 | 147 | 0.0 | 0.0 | 0.00 | 0.00 | 0.00 | 94 | 1019.8 |
| 20260508113318 | 41 | 147 | 0.0 | 0.0 | 0.00 | 0.00 | 0.00 | 94 | 1019.8 |
| 20260508112814 | 41 | 147 | 0.0 | 0.0 | 0.00 | 0.00 | 0.00 | 94 | 1019.8 |
| 20260508112311 | 40 | 147 | 0.0 | 0.0 | 0.00 | 0.00 | 0.00 | 94 | 1019.8 |
| 20260508111808 | 40 | 147 | 0.0 | 0.0 | 0.00 | 0.00 | 0.00 | 94 | 1019.7 |
| 20260508111305 | 40 | 147 | 0.0 | 0.0 | 0.00 | 0.00 | 0.00 | 94 | 1019.7 |
| 20260508110802 | 40 | 147 | 0.0 | 0.0 | 0.00 | 0.00 | 0.00 | 94 | 1019.6 |
| 20260508110300 | 40 | 147 | 0.0 | 0.0 | 0.00 | 0.00 | 0.00 | 94 | 1019.7 |
| 20260508105759 | 40 | 147 | 0.0 | 0.0 | 0.00 | 0.00 | 0.00 | 94 | 1019.4 |
| 20260508105256 | 40 | 146 | 0.0 | 0.0 | 0.00 | 0.00 | 0.00 | 94 | 1019.5 |
| 20260508104753 | 40 | 146 | 0.0 | 0.0 | 0.00 | 0.00 | 0.00 | 94 | 1019.5 |
| 20260508104250 | 40 | 146 | 0.0 | 0.0 | 0.00 | 0.00 | 0.00 | 94 | 1019.6 |
| 20260508103747 | 40 | 146 | 0.0 | 0.0 | 0.00 | 0.00 | 0.00 | 93 | 1019.5 |
| 20260508103244 | 40 | 146 | 0.0 | 0.0 | 0.00 | 0.00 | 0.00 | 93 | 1019.4 |
| 20260508102741 | 41 | 146 | 0.0 | 0.0 | 0.00 | 0.00 | 0.00 | 93 | 1019.6 |
| 20260508102240 | 40 | 146 | 0.0 | 0.0 | 0.00 | 0.00 | 0.00 | 93 | 1019.7 |
| 20260508101736 | 40 | 146 | 0.0 | 0.0 | 0.00 | 0.00 | 0.00 | 93 | 1019.4 |
| 20260508101234 | 40 | 146 | 0.0 | 0.0 | 0.00 | 0.00 | 0.00 | 93 | 1019.4 |
| 20260508100732 | 41 | 146 | 0.0 | 0.0 | 0.00 | 0.00 | 0.00 | 93 | 1019.5 |
| 20260508100229 | 41 | 146 | 0.0 | 0.0 | 0.00 | 0.00 | 0.00 | 93 | 1019.6 |
| 20260508095725 | 40 | 146 | 0.0 | 0.0 | 0.00 | 0.00 | 0.00 | 93 | 1019.3 |
| 20260508095223 | 40 | 145 | 0.0 | 0.0 | 0.00 | 0.00 | 0.00 | 93 | 1019.5 |
| 20260508094719 | 40 | 145 | 0.0 | 0.0 | 0.00 | 0.00 | 0.00 | 93 | 1019.3 |
| 20260508094216 | 40 | 145 | 0.0 | 0.0 | 0.00 | 0.00 | 0.00 | 93 | 1019.4 |
| 20260508093714 | 41 | 145 | 0.0 | 0.0 | 0.00 | 0.00 | 0.00 | 93 | 1019.4 |
| 20260508093212 | 41 | 145 | 0.0 | 0.0 | 0.00 | 0.00 | 0.00 | 93 | 1019.5 |
| 20260508092708 | 41 | 145 | 0.0 | 0.0 | 0.00 | 0.00 | 0.00 | 92 | 1019.4 |
| 20260508092206 | 41 | 145 | 0.0 | 0.0 | 0.00 | 0.00 | 0.00 | 92 | 1019.5 |
| 20260508091704 | 40 | 145 | 0.0 | 0.0 | 0.00 | 0.00 | 0.00 | 92 | 1019.6 |
| 20260508091201 | 41 | 145 | 0.0 | 0.0 | 0.00 | 0.00 | 0.00 | 92 | 1019.5 |
| 20260508090659 | 41 | 145 | 0.0 | 0.0 | 0.00 | 0.00 | 0.00 | 92 | 1019.3 |
| 20260508090156 | 41 | 145 | 0.0 | 0.0 | 0.00 | 0.00 | 0.00 | 92 | 1019.7 |
| 20260508085651 | 40 | 145 | 0.0 | 0.0 | 0.00 | 0.00 | 0.00 | 92 | 1019.3 |
| 20260508085149 | 40 | 145 | 0.0 | 0.0 | 0.00 | 0.00 | 0.00 | 92 | 1019.3 |
| 20260508084645 | 40 | 145 | 0.0 | 0.0 | 0.00 | 0.00 | 0.00 | 92 | 1019.4 |
| 20260508084142 | 41 | 145 | 0.0 | 0.0 | 0.00 | 0.00 | 0.00 | 92 | 1019.5 |
| 20260508083640 | 41 | 144 | 0.0 | 0.0 | 0.00 | 0.00 | 0.00 | 91 | 1019.4 |
| 20260508083138 | 41 | 144 | 0.0 | 0.0 | 0.00 | 0.00 | 0.00 | 91 | 1019.6 |
| 20260508082632 | 40 | 145 | 0.0 | 0.0 | 0.00 | 0.00 | 0.00 | 91 | 1019.6 |
| 20260508082130 | 40 | 145 | 0.0 | 0.0 | 0.00 | 0.00 | 0.00 | 91 | 1019.4 |
| 20260508081627 | 40 | 145 | 0.0 | 0.0 | 0.00 | 0.00 | 0.00 | 91 | 1019.4 |
| 20260508081124 | 40 | 145 | 0.0 | 0.0 | 0.00 | 0.00 | 0.00 | 91 | 1019.4 |
| 20260508080621 | 40 | 145 | 0.0 | 0.0 | 0.00 | 0.00 | 0.00 | 91 | 1019.4 |
| 20260508080119 | 40 | 145 | 0.0 | 0.0 | 0.00 | 0.00 | 0.00 | 91 | 1019.5 |
| 20260508075615 | 40 | 145 | 0.0 | 0.0 | 0.00 | 0.00 | 0.00 | 91 | 1019.5 |
| 20260508075112 | 41 | 145 | 0.0 | 0.0 | 0.00 | 0.00 | 0.00 | 91 | 1019.6 |
| 20260508074610 | 41 | 145 | 0.0 | 0.0 | 0.00 | 0.00 | 0.00 | 90 | 1019.7 |
| 20260508074107 | 41 | 145 | 0.0 | 0.0 | 0.00 | 0.00 | 0.00 | 90 | 1019.5 |
| 20260508073604 | 41 | 145 | 0.0 | 0.0 | 0.00 | 0.00 | 0.00 | 90 | 1019.5 |
| 20260508073102 | 41 | 145 | 0.0 | 0.0 | 0.00 | 0.00 | 0.00 | 90 | 1019.6 |
| 20260508072557 | 41 | 145 | 0.0 | 0.0 | 0.00 | 0.00 | 0.00 | 90 | 1019.5 |
| 20260508072054 | 41 | 145 | 0.0 | 0.0 | 0.00 | 0.00 | 0.00 | 90 | 1019.7 |
| 20260508071552 | 41 | 145 | 0.0 | 0.0 | 0.00 | 0.00 | 0.00 | 90 | 1019.7 |
| 20260508071050 | 41 | 145 | 0.0 | 0.0 | 0.00 | 0.00 | 0.00 | 90 | 1019.7 |
| 20260508070548 | 42 | 145 | 0.0 | 0.0 | 0.00 | 0.00 | 0.00 | 89 | 1019.7 |
| 20260508070046 | 42 | 145 | 0.0 | 0.0 | 0.00 | 0.00 | 0.00 | 89 | 1019.6 |
| 20260508065543 | 42 | 145 | 0.0 | 0.0 | 0.00 | 0.00 | 0.00 | 89 | 1019.9 |
| 20260508065041 | 41 | 145 | 0.0 | 0.0 | 0.00 | 0.00 | 0.00 | 89 | 1019.7 |
| 20260508064538 | 42 | 145 | 0.0 | 0.0 | 0.00 | 0.00 | 0.00 | 89 | 1019.8 |
| 20260508064036 | 42 | 145 | 0.0 | 0.0 | 0.00 | 0.00 | 0.00 | 89 | 1019.8 |
| 20260508063533 | 42 | 145 | 0.0 | 0.0 | 0.00 | 0.00 | 0.00 | 88 | 1019.9 |
| 20260508063031 | 42 | 145 | 0.0 | 0.0 | 0.00 | 0.00 | 0.00 | 88 | 1019.9 |
| 20260508062528 | 42 | 145 | 0.0 | 0.0 | 0.00 | 0.00 | 0.00 | 88 | 1019.8 |
| 20260508062025 | 42 | 145 | 0.0 | 0.0 | 0.00 | 0.00 | 0.00 | 88 | 1019.9 |
| 20260508061523 | 42 | 145 | 0.0 | 0.0 | 0.00 | 0.00 | 0.00 | 88 | 1019.8 |
| 20260508061019 | 42 | 145 | 0.0 | 0.0 | 0.00 | 0.00 | 0.00 | 88 | 1019.9 |
| 20260508060516 | 42 | 145 | 0.0 | 0.0 | 0.00 | 0.00 | 0.00 | 87 | 1020.2 |
| 20260508060014 | 42 | 145 | 0.0 | 0.0 | 0.00 | 0.00 | 0.00 | 87 | 1020.1 |
| 20260508055509 | 43 | 145 | 0.0 | 0.0 | 0.00 | 0.00 | 0.00 | 87 | 1020.2 |
| 20260508055006 | 43 | 145 | 0.0 | 0.0 | 0.00 | 0.00 | 0.00 | 87 | 1020.0 |
| 20260508054503 | 43 | 145 | 0.0 | 0.0 | 0.00 | 0.00 | 0.00 | 86 | 1020.2 |
| 20260508054000 | 43 | 145 | 0.0 | 0.0 | 0.00 | 0.00 | 0.00 | 86 | 1020.3 |
| 20260508053456 | 43 | 145 | 0.0 | 0.0 | 0.00 | 0.00 | 0.00 | 86 | 1020.4 |
| 20260508052954 | 43 | 145 | 0.0 | 0.0 | 0.00 | 0.00 | 0.00 | 86 | 1020.3 |
| 20260508052452 | 43 | 145 | 0.0 | 0.0 | 0.00 | 0.00 | 0.00 | 86 | 1020.4 |
| 20260508051948 | 43 | 145 | 0.0 | 0.0 | 0.00 | 0.00 | 0.00 | 85 | 1020.3 |
| 20260508051443 | 43 | 145 | 0.0 | 0.0 | 0.00 | 0.00 | 0.00 | 85 | 1020.1 |
| 20260508050940 | 43 | 145 | 0.0 | 0.0 | 0.00 | 0.00 | 0.00 | 85 | 1020.1 |
| 20260508050437 | 44 | 145 | 0.0 | 0.0 | 0.00 | 0.00 | 0.00 | 85 | 1019.9 |
| 20260508045933 | 43 | 145 | 0.0 | 0.0 | 0.00 | 0.00 | 0.00 | 84 | 1019.9 |
| 20260508045431 | 44 | 145 | 0.0 | 0.0 | 0.00 | 0.00 | 0.00 | 84 | 1019.8 |